Location: Newark
(41.8083°N, 72.2500°W)
Time: 23:41:23
(UTC+00:00)

Transit 2A - Pass Details

Date: 06 December 2021
Orbit: 591 x 967 km, 66.7° (Epoch: 23 January)

Event Time Altitude Azimuth Distance (km) Brightness Sun altitude
Rises 11:13:58 0° 337° (NNW) 3,654 9.1 -8.9°
Reaches altitude 10° 11:17:27 10° 355° (N) 2,714 8.6 -8.3°
Maximum altitude 11:21:46 19° 37° (NE) 2,146 8.5 -7.5°
Drops below altitude 10° 11:26:00 10° 80° (E) 2,662 9.8 -6.8°
Sets 11:29:21 0° 98° (E) 3,559 11.2 -6.3°
